iso_date,epoch_date,Year,Hour,Min,DOY,POS_DOY,Lat,Lon,BP,Ts,Ta,has_bp,has_ts,has_ta,BuoyID,Buoy_Type,Buoy_Owner,Logistics,Hemisphere
2021-08-20T00:26:03Z,1629419164,2021,0,26,232.0181,232.0181,70.06547,-52.36209,-999.00,-999.00,-999.0,no,no,no,4435536,SPIT,USIABP,ICE-PPR<br>DiskoBay,North
2021-08-20T01:06:57Z,1629421618,2021,1,7,232.0465,232.0465,70.06541,-52.36249,-999.00,-999.00,-999.0,no,no,no,4435536,SPIT,USIABP,ICE-PPR<br>DiskoBay,North
2021-08-20T01:36:02Z,1629423363,2021,1,36,232.0667,232.0667,70.06523,-52.36282,-999.00,-999.00,-999.0,no,no,no,4435536,SPIT,USIABP,ICE-PPR<br>DiskoBay,North
2021-08-20T02:07:00Z,1629425220,2021,2,7,232.0882,232.0882,70.06509,-52.36404,-999.00,-999.00,-999.0,no,no,no,4435536,SPIT,USIABP,ICE-PPR<br>DiskoBay,North
2021-08-20T02:35:57Z,1629426957,2021,2,36,232.1083,232.1083,70.06518,-52.36432,-999.00,-999.00,-999.0,no,no,no,4435536,SPIT,USIABP,ICE-PPR<br>DiskoBay,North
2021-08-20T03:06:02Z,1629428763,2021,3,6,232.1292,232.1292,70.06509,-52.36383,-999.00,-999.00,-999.0,no,no,no,4435536,SPIT,USIABP,ICE-PPR<br>DiskoBay,North
2021-08-20T04:04:56Z,1629432297,2021,4,5,232.1701,232.1701,70.06515,-52.36229,-999.00,-999.00,-999.0,no,no,no,4435536,SPIT,USIABP,ICE-PPR<br>DiskoBay,North
2021-08-20T04:35:02Z,1629434102,2021,4,35,232.191,232.191,70.06451,-52.36057,-999.00,-999.00,-999.0,no,no,no,4435536,SPIT,USIABP,ICE-PPR<br>DiskoBay,North
2021-08-20T05:04:59Z,1629435900,2021,5,5,232.2118,232.2118,70.06461,-52.36002,-999.00,-999.00,-999.0,no,no,no,4435536,SPIT,USIABP,ICE-PPR<br>DiskoBay,North
2021-08-20T07:33:01Z,1629444781,2021,7,33,232.3146,232.3146,70.06444,-52.36032,-999.00,-999.00,-999.0,no,no,no,4435536,SPIT,USIABP,ICE-PPR<br>DiskoBay,North
2021-08-20T08:02:58Z,1629446579,2021,8,3,232.3354,232.3354,70.06471,-52.36006,-999.00,-999.00,-999.0,no,no,no,4435536,SPIT,USIABP,ICE-PPR<br>DiskoBay,North
2021-08-20T08:33:04Z,1629448384,2021,8,33,232.3563,232.3563,70.06458,-52.36023,-999.00,-999.00,-999.0,no,no,no,4435536,SPIT,USIABP,ICE-PPR<br>DiskoBay,North
2021-08-20T09:03:01Z,1629450181,2021,9,3,232.3771,232.3771,70.06483,-52.36055,-999.00,-999.00,-999.0,no,no,no,4435536,SPIT,USIABP,ICE-PPR<br>DiskoBay,North
2021-08-20T09:32:58Z,1629451979,2021,9,33,232.3979,232.3979,70.06509,-52.36295,-999.00,-999.00,-999.0,no,no,no,4435536,SPIT,USIABP,ICE-PPR<br>DiskoBay,North
2021-08-20T10:02:55Z,1629453776,2021,10,3,232.4187,232.4187,70.06485,-52.36304,-999.00,-999.00,-999.0,no,no,no,4435536,SPIT,USIABP,ICE-PPR<br>DiskoBay,North
2021-08-20T11:01:58Z,1629457318,2021,11,2,232.4597,232.4597,69.98293,-52.35798,-999.00,-999.00,-999.0,no,no,no,4435536,SPIT,USIABP,ICE-PPR<br>DiskoBay,North
2021-08-20T11:32:03Z,1629459124,2021,11,32,232.4806,232.4806,69.97435,-52.31506,-999.00,-999.00,-999.0,no,no,no,4435536,SPIT,USIABP,ICE-PPR<br>DiskoBay,North
2021-08-20T12:02:00Z,1629460921,2021,12,2,232.5014,232.5014,69.97454,-52.30696,-999.00,-999.00,-999.0,no,no,no,4435536,SPIT,USIABP,ICE-PPR<br>DiskoBay,North
2021-08-20T12:31:58Z,1629462718,2021,12,32,232.5222,232.5222,69.97425,-52.32138,-999.00,-999.00,-999.0,no,no,no,4435536,SPIT,USIABP,ICE-PPR<br>DiskoBay,North
2021-08-20T16:01:03Z,1629475263,2021,16,1,232.6674,232.6674,69.98183,-52.41907,-999.00,-999.00,-999.0,no,no,no,4435536,SPIT,USIABP,ICE-PPR<br>DiskoBay,North
2021-08-20T19:30:00Z,1629487800,2021,19,30,232.8125,232.8125,69.99072,-52.43588,-999.00,-999.00,-999.0,no,no,no,4435536,SPIT,USIABP,ICE-PPR<br>DiskoBay,North
2021-08-20T22:28:59Z,1629498540,2021,22,29,232.9368,232.9368,69.98913,-52.442,-999.00,-999.00,-999.0,no,no,no,4435536,SPIT,USIABP,ICE-PPR<br>DiskoBay,North
2021-08-20T22:58:56Z,1629500337,2021,22,59,232.9576,232.9576,69.99033,-52.45221,-999.00,-999.00,-999.0,no,no,no,4435536,SPIT,USIABP,ICE-PPR<br>DiskoBay,North
2021-08-21T02:27:01Z,1629512821,2021,2,27,233.1021,233.1021,70.00579,-52.55878,-999.00,-999.00,-999.0,no,no,no,4435536,SPIT,USIABP,ICE-PPR<br>DiskoBay,North
2021-08-21T02:56:58Z,1629514619,2021,2,57,233.1229,233.1229,70.0096,-52.57238,-999.00,-999.00,-999.0,no,no,no,4435536,SPIT,USIABP,ICE-PPR<br>DiskoBay,North
2021-08-21T03:27:04Z,1629516424,2021,3,27,233.1438,233.1438,70.01333,-52.58414,-999.00,-999.00,-999.0,no,no,no,4435536,SPIT,USIABP,ICE-PPR<br>DiskoBay,North
2021-08-21T03:57:01Z,1629518221,2021,3,57,233.1646,233.1646,70.01749,-52.59238,-999.00,-999.00,-999.0,no,no,no,4435536,SPIT,USIABP,ICE-PPR<br>DiskoBay,North
2021-08-21T04:26:58Z,1629520019,2021,4,27,233.1854,233.1854,70.02029,-52.5947,-999.00,-999.00,-999.0,no,no,no,4435536,SPIT,USIABP,ICE-PPR<br>DiskoBay,North
2021-08-21T04:56:55Z,1629521816,2021,4,57,233.2062,233.2062,70.02199,-52.59338,-999.00,-999.00,-999.0,no,no,no,4435536,SPIT,USIABP,ICE-PPR<br>DiskoBay,North
2021-08-21T07:24:57Z,1629530698,2021,7,25,233.309,233.309,70.02015,-52.57023,-999.00,-999.00,-999.0,no,no,no,4435536,SPIT,USIABP,ICE-PPR<br>DiskoBay,North
2021-08-21T07:55:03Z,1629532503,2021,7,55,233.3299,233.3299,70.01951,-52.56457,-999.00,-999.00,-999.0,no,no,no,4435536,SPIT,USIABP,ICE-PPR<br>DiskoBay,North
2021-08-21T08:25:00Z,1629534300,2021,8,25,233.3507,233.3507,70.01736,-52.56036,-999.00,-999.00,-999.0,no,no,no,4435536,SPIT,USIABP,ICE-PPR<br>DiskoBay,North
2021-08-21T08:54:57Z,1629536098,2021,8,55,233.3715,233.3715,70.01546,-52.55785,-999.00,-999.00,-999.0,no,no,no,4435536,SPIT,USIABP,ICE-PPR<br>DiskoBay,North
2021-08-21T09:25:03Z,1629537903,2021,9,25,233.3924,233.3924,70.01392,-52.55725,-999.00,-999.00,-999.0,no,no,no,4435536,SPIT,USIABP,ICE-PPR<br>DiskoBay,North
2021-08-21T09:55:00Z,1629539700,2021,9,55,233.4132,233.4132,70.0123,-52.55833,-999.00,-999.00,-999.0,no,no,no,4435536,SPIT,USIABP,ICE-PPR<br>DiskoBay,North
2021-08-21T10:24:57Z,1629541498,2021,10,25,233.434,233.434,70.01136,-52.56271,-999.00,-999.00,-999.0,no,no,no,4435536,SPIT,USIABP,ICE-PPR<br>DiskoBay,North
2021-08-21T10:55:03Z,1629543303,2021,10,55,233.4549,233.4549,70.011,-52.56867,-999.00,-999.00,-999.0,no,no,no,4435536,SPIT,USIABP,ICE-PPR<br>DiskoBay,North
2021-08-21T11:25:00Z,1629545100,2021,11,25,233.4757,233.4757,70.01117,-52.57433,-999.00,-999.00,-999.0,no,no,no,4435536,SPIT,USIABP,ICE-PPR<br>DiskoBay,North
2021-08-21T11:54:57Z,1629546898,2021,11,55,233.4965,233.4965,70.01199,-52.58197,-999.00,-999.00,-999.0,no,no,no,4435536,SPIT,USIABP,ICE-PPR<br>DiskoBay,North
2021-08-21T12:25:03Z,1629548703,2021,12,25,233.5174,233.5174,70.01233,-52.5915,-999.00,-999.00,-999.0,no,no,no,4435536,SPIT,USIABP,ICE-PPR<br>DiskoBay,North
2021-08-21T12:55:00Z,1629550500,2021,12,55,233.5382,233.5382,70.01255,-52.60025,-999.00,-999.00,-999.0,no,no,no,4435536,SPIT,USIABP,ICE-PPR<br>DiskoBay,North
2021-08-21T13:24:57Z,1629552298,2021,13,25,233.559,233.559,70.01317,-52.60872,-999.00,-999.00,-999.0,no,no,no,4435536,SPIT,USIABP,ICE-PPR<br>DiskoBay,North
2021-08-21T13:55:03Z,1629554103,2021,13,55,233.5799,233.5799,70.01433,-52.6167,-999.00,-999.00,-999.0,no,no,no,4435536,SPIT,USIABP,ICE-PPR<br>DiskoBay,North
2021-08-21T14:24:00Z,1629555840,2021,14,24,233.6,233.6,70.01618,-52.62409,-999.00,-999.00,-999.0,no,no,no,4435536,SPIT,USIABP,ICE-PPR<br>DiskoBay,North
2021-08-21T14:53:57Z,1629557637,2021,14,54,233.6208,233.6208,70.01821,-52.63121,-999.00,-999.00,-999.0,no,no,no,4435536,SPIT,USIABP,ICE-PPR<br>DiskoBay,North
2021-08-21T15:24:02Z,1629559443,2021,15,24,233.6417,233.6417,70.01958,-52.6373,-999.00,-999.00,-999.0,no,no,no,4435536,SPIT,USIABP,ICE-PPR<br>DiskoBay,North
2021-08-21T18:52:59Z,1629571980,2021,18,53,233.7868,233.7868,70.01604,-52.63678,-999.00,-999.00,-999.0,no,no,no,4435536,SPIT,USIABP,ICE-PPR<br>DiskoBay,North
2021-08-21T19:21:56Z,1629573716,2021,19,22,233.8069,233.8069,70.01456,-52.63379,-999.00,-999.00,-999.0,no,no,no,4435536,SPIT,USIABP,ICE-PPR<br>DiskoBay,North
2021-08-21T19:52:01Z,1629575522,2021,19,52,233.8278,233.8278,70.01267,-52.63031,-999.00,-999.00,-999.0,no,no,no,4435536,SPIT,USIABP,ICE-PPR<br>DiskoBay,North
2021-08-21T20:21:59Z,1629577319,2021,20,22,233.8486,233.8486,70.01112,-52.62813,-999.00,-999.00,-999.0,no,no,no,4435536,SPIT,USIABP,ICE-PPR<br>DiskoBay,North
2021-08-21T20:51:56Z,1629579116,2021,20,52,233.8694,233.8694,70.00979,-52.62753,-999.00,-999.00,-999.0,no,no,no,4435536,SPIT,USIABP,ICE-PPR<br>DiskoBay,North
2021-08-21T21:22:01Z,1629580922,2021,21,22,233.8903,233.8903,70.00857,-52.63039,-999.00,-999.00,-999.0,no,no,no,4435536,SPIT,USIABP,ICE-PPR<br>DiskoBay,North
2021-08-21T21:51:59Z,1629582719,2021,21,52,233.9111,233.9111,70.00642,-52.63571,-999.00,-999.00,-999.0,no,no,no,4435536,SPIT,USIABP,ICE-PPR<br>DiskoBay,North
2021-08-21T22:20:55Z,1629584456,2021,22,21,233.9312,233.9312,70.00505,-52.64401,-999.00,-999.00,-999.0,no,no,no,4435536,SPIT,USIABP,ICE-PPR<br>DiskoBay,North
2021-08-21T22:51:01Z,1629586261,2021,22,51,233.9521,233.9521,70.00507,-52.65558,-999.00,-999.00,-999.0,no,no,no,4435536,SPIT,USIABP,ICE-PPR<br>DiskoBay,North
2021-08-21T23:20:58Z,1629588059,2021,23,21,233.9729,233.9729,70.00617,-52.66791,-999.00,-999.00,-999.0,no,no,no,4435536,SPIT,USIABP,ICE-PPR<br>DiskoBay,North
2021-08-21T23:51:04Z,1629589864,2021,23,51,233.9938,233.9938,70.00838,-52.68112,-999.00,-999.00,-999.0,no,no,no,4435536,SPIT,USIABP,ICE-PPR<br>DiskoBay,North
2021-08-22T00:21:01Z,1629591661,2021,0,21,234.0146,234.0146,70.01138,-52.69321,-999.00,-999.00,-999.0,no,no,no,4435536,SPIT,USIABP,ICE-PPR<br>DiskoBay,North
2021-08-22T00:49:58Z,1629593398,2021,0,50,234.0347,234.0347,70.01446,-52.70585,-999.00,-999.00,-999.0,no,no,no,4435536,SPIT,USIABP,ICE-PPR<br>DiskoBay,North
2021-08-22T01:20:03Z,1629595204,2021,1,20,234.0556,234.0556,70.01772,-52.71692,-999.00,-999.00,-999.0,no,no,no,4435536,SPIT,USIABP,ICE-PPR<br>DiskoBay,North
2021-08-22T01:50:00Z,1629597001,2021,1,50,234.0764,234.0764,70.02128,-52.72913,-999.00,-999.00,-999.0,no,no,no,4435536,SPIT,USIABP,ICE-PPR<br>DiskoBay,North
2021-08-22T02:19:58Z,1629598798,2021,2,20,234.0972,234.0972,70.02518,-52.7438,-999.00,-999.00,-999.0,no,no,no,4435536,SPIT,USIABP,ICE-PPR<br>DiskoBay,North
2021-08-22T02:50:03Z,1629600604,2021,2,50,234.1181,234.1181,70.0297,-52.75873,-999.00,-999.00,-999.0,no,no,no,4435536,SPIT,USIABP,ICE-PPR<br>DiskoBay,North
2021-08-22T03:20:00Z,1629602401,2021,3,20,234.1389,234.1389,70.03451,-52.77203,-999.00,-999.00,-999.0,no,no,no,4435536,SPIT,USIABP,ICE-PPR<br>DiskoBay,North
2021-08-22T03:49:58Z,1629604198,2021,3,50,234.1597,234.1597,70.03922,-52.78519,-999.00,-999.00,-999.0,no,no,no,4435536,SPIT,USIABP,ICE-PPR<br>DiskoBay,North
2021-08-22T04:20:03Z,1629606004,2021,4,20,234.1806,234.1806,70.04291,-52.79764,-999.00,-999.00,-999.0,no,no,no,4435536,SPIT,USIABP,ICE-PPR<br>DiskoBay,North
2021-08-22T06:48:57Z,1629614938,2021,6,49,234.284,234.284,70.04774,-52.80209,-999.00,-999.00,-999.0,no,no,no,4435536,SPIT,USIABP,ICE-PPR<br>DiskoBay,North
2021-08-22T07:19:03Z,1629616743,2021,7,19,234.3049,234.3049,70.04671,-52.79934,-999.00,-999.00,-999.0,no,no,no,4435536,SPIT,USIABP,ICE-PPR<br>DiskoBay,North
2021-08-22T07:49:00Z,1629618540,2021,7,49,234.3257,234.3257,70.04539,-52.79376,-999.00,-999.00,-999.0,no,no,no,4435536,SPIT,USIABP,ICE-PPR<br>DiskoBay,North
2021-08-22T08:18:57Z,1629620338,2021,8,19,234.3465,234.3465,70.04353,-52.7876,-999.00,-999.00,-999.0,no,no,no,4435536,SPIT,USIABP,ICE-PPR<br>DiskoBay,North
2021-08-22T08:49:03Z,1629622143,2021,8,49,234.3674,234.3674,70.04152,-52.78201,-999.00,-999.00,-999.0,no,no,no,4435536,SPIT,USIABP,ICE-PPR<br>DiskoBay,North
2021-08-22T09:48:57Z,1629625738,2021,9,49,234.409,234.409,70.03744,-52.77316,-999.00,-999.00,-999.0,no,no,no,4435536,SPIT,USIABP,ICE-PPR<br>DiskoBay,North
2021-08-22T14:48:02Z,1629643683,2021,14,48,234.6167,234.6167,70.05058,-52.84421,-999.00,-999.00,-999.0,no,no,no,4435536,SPIT,USIABP,ICE-PPR<br>DiskoBay,North
2021-08-22T15:16:59Z,1629645420,2021,15,17,234.6368,234.6368,70.05347,-52.8494,-999.00,-999.00,-999.0,no,no,no,4435536,SPIT,USIABP,ICE-PPR<br>DiskoBay,North
2021-08-22T15:46:56Z,1629647217,2021,15,47,234.6576,234.6576,70.05683,-52.85334,-999.00,-999.00,-999.0,no,no,no,4435536,SPIT,USIABP,ICE-PPR<br>DiskoBay,North
2021-08-22T16:17:02Z,1629649022,2021,16,17,234.6785,234.6785,70.05933,-52.85506,-999.00,-999.00,-999.0,no,no,no,4435536,SPIT,USIABP,ICE-PPR<br>DiskoBay,North
2021-08-22T16:46:59Z,1629650820,2021,16,47,234.6993,234.6993,70.06053,-52.85583,-999.00,-999.00,-999.0,no,no,no,4435536,SPIT,USIABP,ICE-PPR<br>DiskoBay,North
2021-08-22T19:16:01Z,1629659762,2021,19,16,234.8028,234.8028,70.0588,-52.84613,-999.00,-999.00,-999.0,no,no,no,4435536,SPIT,USIABP,ICE-PPR<br>DiskoBay,North
2021-08-22T19:45:59Z,1629661559,2021,19,46,234.8236,234.8236,70.05777,-52.84347,-999.00,-999.00,-999.0,no,no,no,4435536,SPIT,USIABP,ICE-PPR<br>DiskoBay,North
2021-08-22T20:15:56Z,1629663356,2021,20,16,234.8444,234.8444,70.05744,-52.84167,-999.00,-999.00,-999.0,no,no,no,4435536,SPIT,USIABP,ICE-PPR<br>DiskoBay,North
2021-08-22T20:46:01Z,1629665162,2021,20,46,234.8653,234.8653,70.05734,-52.84159,-999.00,-999.00,-999.0,no,no,no,4435536,SPIT,USIABP,ICE-PPR<br>DiskoBay,North
2021-08-22T21:15:59Z,1629666959,2021,21,16,234.8861,234.8861,70.05785,-52.84159,-999.00,-999.00,-999.0,no,no,no,4435536,SPIT,USIABP,ICE-PPR<br>DiskoBay,North
2021-08-22T21:45:56Z,1629668756,2021,21,46,234.9069,234.9069,70.05914,-52.8421,-999.00,-999.00,-999.0,no,no,no,4435536,SPIT,USIABP,ICE-PPR<br>DiskoBay,North
2021-08-22T22:15:01Z,1629670501,2021,22,15,234.9271,234.9271,70.06133,-52.84457,-999.00,-999.00,-999.0,no,no,no,4435536,SPIT,USIABP,ICE-PPR<br>DiskoBay,North
2021-08-22T22:44:58Z,1629672299,2021,22,45,234.9479,234.9479,70.06416,-52.84744,-999.00,-999.00,-999.0,no,no,no,4435536,SPIT,USIABP,ICE-PPR<br>DiskoBay,North
2021-08-22T23:15:04Z,1629674104,2021,23,15,234.9688,234.9688,70.06676,-52.84895,-999.00,-999.00,-999.0,no,no,no,4435536,SPIT,USIABP,ICE-PPR<br>DiskoBay,North
2021-08-22T23:45:01Z,1629675901,2021,23,45,234.9896,234.9896,70.07028,-52.85419,-999.00,-999.00,-999.0,no,no,no,4435536,SPIT,USIABP,ICE-PPR<br>DiskoBay,North
2021-08-23T01:14:00Z,1629681241,2021,1,14,235.0514,235.0514,70.08582,-52.88302,-999.00,-999.00,-999.0,no,no,no,4435536,SPIT,USIABP,ICE-PPR<br>DiskoBay,North
2021-08-23T01:43:58Z,1629683038,2021,1,44,235.0722,235.0722,70.09251,-52.89512,-999.00,-999.00,-999.0,no,no,no,4435536,SPIT,USIABP,ICE-PPR<br>DiskoBay,North
2021-08-23T02:14:03Z,1629684844,2021,2,14,235.0931,235.0931,70.09912,-52.90628,-999.00,-999.00,-999.0,no,no,no,4435536,SPIT,USIABP,ICE-PPR<br>DiskoBay,North
2021-08-23T03:12:57Z,1629688378,2021,3,13,235.134,235.134,70.10824,-52.91839,-999.00,-999.00,-999.0,no,no,no,4435536,SPIT,USIABP,ICE-PPR<br>DiskoBay,North
2021-08-23T03:43:03Z,1629690183,2021,3,43,235.1549,235.1549,70.11116,-52.92637,-999.00,-999.00,-999.0,no,no,no,4435536,SPIT,USIABP,ICE-PPR<br>DiskoBay,North
2021-08-23T04:13:00Z,1629691980,2021,4,13,235.1757,235.1757,70.11369,-52.93332,-999.00,-999.00,-999.0,no,no,no,4435536,SPIT,USIABP,ICE-PPR<br>DiskoBay,North
2021-08-23T04:42:57Z,1629693778,2021,4,43,235.1965,235.1965,70.11689,-52.94006,-999.00,-999.00,-999.0,no,no,no,4435536,SPIT,USIABP,ICE-PPR<br>DiskoBay,North
2021-08-23T05:13:03Z,1629695583,2021,5,13,235.2174,235.2174,70.11989,-52.94796,-999.00,-999.00,-999.0,no,no,no,4435536,SPIT,USIABP,ICE-PPR<br>DiskoBay,North
2021-08-23T05:43:00Z,1629697380,2021,5,43,235.2382,235.2382,70.12246,-52.95053,-999.00,-999.00,-999.0,no,no,no,4435536,SPIT,USIABP,ICE-PPR<br>DiskoBay,North
2021-08-23T06:43:03Z,1629700983,2021,6,43,235.2799,235.2799,70.12625,-52.94854,-999.00,-999.00,-999.0,no,no,no,4435536,SPIT,USIABP,ICE-PPR<br>DiskoBay,North
2021-08-23T07:13:00Z,1629702780,2021,7,13,235.3007,235.3007,70.12694,-52.94356,-999.00,-999.00,-999.0,no,no,no,4435536,SPIT,USIABP,ICE-PPR<br>DiskoBay,North
2021-08-23T07:42:57Z,1629704578,2021,7,43,235.3215,235.3215,70.12724,-52.93738,-999.00,-999.00,-999.0,no,no,no,4435536,SPIT,USIABP,ICE-PPR<br>DiskoBay,North
2021-08-23T08:42:00Z,1629708120,2021,8,42,235.3625,235.3625,70.12635,-52.92078,-999.00,-999.00,-999.0,no,no,no,4435536,SPIT,USIABP,ICE-PPR<br>DiskoBay,North
2021-08-23T09:11:57Z,1629709917,2021,9,12,235.3833,235.3833,70.12562,-52.91323,-999.00,-999.00,-999.0,no,no,no,4435536,SPIT,USIABP,ICE-PPR<br>DiskoBay,North
2021-08-23T09:42:02Z,1629711723,2021,9,42,235.4042,235.4042,70.12502,-52.90628,-999.00,-999.00,-999.0,no,no,no,4435536,SPIT,USIABP,ICE-PPR<br>DiskoBay,North
2021-08-23T10:12:00Z,1629713520,2021,10,12,235.425,235.425,70.12493,-52.90205,-999.00,-999.00,-999.0,no,no,no,4435536,SPIT,USIABP,ICE-PPR<br>DiskoBay,North
2021-08-23T10:41:57Z,1629715317,2021,10,42,235.4458,235.4458,70.12591,-52.90093,-999.00,-999.00,-999.0,no,no,no,4435536,SPIT,USIABP,ICE-PPR<br>DiskoBay,North
2021-08-23T11:12:02Z,1629717123,2021,11,12,235.4667,235.4667,70.12797,-52.90247,-999.00,-999.00,-999.0,no,no,no,4435536,SPIT,USIABP,ICE-PPR<br>DiskoBay,North
2021-08-23T14:40:59Z,1629729660,2021,14,41,235.6118,235.6118,70.14388,-52.93237,-999.00,-999.00,-999.0,no,no,no,4435536,SPIT,USIABP,ICE-PPR<br>DiskoBay,North
2021-08-23T16:09:59Z,1629734999,2021,16,10,235.6736,235.6736,70.1581,-52.94783,-999.00,-999.00,-999.0,no,no,no,4435536,SPIT,USIABP,ICE-PPR<br>DiskoBay,North
2021-08-23T16:39:56Z,1629736796,2021,16,40,235.6944,235.6944,70.16252,-52.95264,-999.00,-999.00,-999.0,no,no,no,4435536,SPIT,USIABP,ICE-PPR<br>DiskoBay,North
2021-08-23T17:10:01Z,1629738602,2021,17,10,235.7153,235.7153,70.16707,-52.9559,-999.00,-999.00,-999.0,no,no,no,4435536,SPIT,USIABP,ICE-PPR<br>DiskoBay,North
2021-08-23T19:38:55Z,1629747536,2021,19,39,235.8187,235.8187,70.18147,-52.94096,-999.00,-999.00,-999.0,no,no,no,4435536,SPIT,USIABP,ICE-PPR<br>DiskoBay,North
2021-08-23T20:09:01Z,1629749341,2021,20,9,235.8396,235.8396,70.18272,-52.93581,-999.00,-999.00,-999.0,no,no,no,4435536,SPIT,USIABP,ICE-PPR<br>DiskoBay,North
2021-08-23T20:38:58Z,1629751139,2021,20,39,235.8604,235.8604,70.18438,-52.9292,-999.00,-999.00,-999.0,no,no,no,4435536,SPIT,USIABP,ICE-PPR<br>DiskoBay,North
2021-08-23T21:08:03Z,1629752884,2021,21,8,235.8806,235.8806,70.18572,-52.92289,-999.00,-999.00,-999.0,no,no,no,4435536,SPIT,USIABP,ICE-PPR<br>DiskoBay,North
2021-08-23T21:38:00Z,1629754681,2021,21,38,235.9014,235.9014,70.18666,-52.91765,-999.00,-999.00,-999.0,no,no,no,4435536,SPIT,USIABP,ICE-PPR<br>DiskoBay,North
2021-08-23T22:07:58Z,1629756478,2021,22,8,235.9222,235.9222,70.18747,-52.91473,-999.00,-999.00,-999.0,no,no,no,4435536,SPIT,USIABP,ICE-PPR<br>DiskoBay,North
2021-08-23T22:38:03Z,1629758284,2021,22,38,235.9431,235.9431,70.18795,-52.9137,-999.00,-999.00,-999.0,no,no,no,4435536,SPIT,USIABP,ICE-PPR<br>DiskoBay,North
2021-08-24T02:07:00Z,1629770820,2021,2,7,236.0882,236.0882,70.20927,-52.94833,-999.00,-999.00,-999.0,no,no,no,4435536,SPIT,USIABP,ICE-PPR<br>DiskoBay,North
